| time (UTC) | temp F | wind direction | speed knots | gust knots | rain 1hr in | rain 24hr in | rain mn in | humidity % | barometer mb |
| 20260503185909 | 59 | 240 | 11.3 | 20.9 | 0.00 | 0.00 | 0.00 | 46 | 1015.3 |
| 20260503185406 | 59 | 249 | 12.2 | 14.8 | 0.00 | 0.00 | 0.00 | 43 | 1015.4 |
| 20260503184905 | 59 | 253 | 10.4 | 15.6 | 0.00 | 0.00 | 0.00 | 42 | 1015.4 |
| 20260503184402 | 59 | 254 | 12.2 | 16.5 | 0.00 | 0.00 | 0.00 | 41 | 1015.3 |
| 20260503183858 | 59 | 257 | 14.8 | 18.2 | 0.00 | 0.00 | 0.00 | 41 | 1015.7 |
| 20260503183355 | 59 | 222 | 13.0 | 15.6 | 0.00 | 0.00 | 0.00 | 41 | 1015.4 |
| 20260503182852 | 59 | 253 | 13.0 | 20.9 | 0.00 | 0.00 | 0.00 | 42 | 1015.7 |
| 20260503182351 | 59 | 245 | 12.2 | 14.8 | 0.00 | 0.00 | 0.00 | 39 | 1015.8 |
| 20260503181848 | 59 | 258 | 10.4 | 18.2 | 0.00 | 0.00 | 0.00 | 40 | 1015.7 |
| 20260503181345 | 59 | 256 | 14.8 | 16.5 | 0.00 | 0.00 | 0.00 | 38 | 1016.0 |
| 20260503180841 | 60 | 268 | 11.3 | 18.2 | 0.00 | 0.00 | 0.00 | 37 | 1016.0 |
| 20260503180340 | 60 | 262 | 11.3 | 15.6 | 0.00 | 0.00 | 0.00 | 37 | 1016.1 |
| 20260503175836 | 60 | 260 | 12.2 | 15.6 | 0.00 | 0.00 | 0.00 | 39 | 1016.1 |
| 20260503175334 | 60 | 219 | 16.5 | 22.6 | 0.00 | 0.00 | 0.00 | 41 | 1016.1 |
| 20260503174834 | 60 | 254 | 13.0 | 14.8 | 0.00 | 0.00 | 0.00 | 38 | 1016.4 |
| 20260503174333 | 59 | 265 | 13.0 | 19.1 | 0.00 | 0.00 | 0.00 | 37 | 1016.4 |
| 20260503173828 | 60 | 247 | 13.0 | 20.0 | 0.00 | 0.00 | 0.00 | 39 | 1016.3 |
| 20260503173325 | 60 | 211 | 18.2 | 25.2 | 0.00 | 0.00 | 0.00 | 39 | 1016.4 |
| 20260503172821 | 60 | 220 | 14.8 | 16.5 | 0.00 | 0.00 | 0.00 | 37 | 1016.4 |
| 20260503172319 | 59 | 205 | 11.3 | 16.5 | 0.00 | 0.00 | 0.00 | 41 | 1016.5 |
| 20260503171815 | 59 | 254 | 13.0 | 20.0 | 0.00 | 0.00 | 0.00 | 38 | 1016.7 |
| 20260503171312 | 59 | 196 | 15.6 | 18.2 | 0.00 | 0.00 | 0.00 | 37 | 1016.8 |
| 20260503170809 | 59 | 257 | 12.2 | 15.6 | 0.00 | 0.00 | 0.00 | 38 | 1016.8 |
| 20260503170306 | 59 | 223 | 12.2 | 20.9 | 0.00 | 0.00 | 0.00 | 37 | 1017.0 |
| 20260503150658 | 55 | 256 | 10.4 | 14.8 | 0.00 | 0.00 | 0.00 | 46 | 1019.0 |
| 20260503150154 | 55 | 263 | 12.2 | 18.2 | 0.00 | 0.00 | 0.00 | 45 | 1018.9 |
| 20260503140118 | 51 | 278 | 9.6 | 13.0 | 0.00 | 0.00 | 0.00 | 53 | 1019.6 |
| 20260503131048 | 48 | 260 | 7.8 | 9.6 | 0.00 | 0.00 | 0.00 | 57 | 1019.7 |
| 20260503130545 | 48 | 271 | 10.4 | 13.9 | 0.00 | 0.00 | 0.00 | 56 | 1019.8 |
| 20260503110435 | 41 | 215 | 6.1 | 9.6 | 0.00 | 0.00 | 0.00 | 65 | 1019.6 |
| 20260503090326 | 41 | 236 | 3.5 | 6.1 | 0.00 | 0.00 | 0.00 | 66 | 1019.0 |
| 20260503081254 | 39 | 218 | 3.5 | 5.2 | 0.00 | 0.00 | 0.00 | 69 | 1019.1 |
| 20260503080749 | 39 | 225 | 5.2 | 5.2 | 0.00 | 0.00 | 0.00 | 68 | 1019.2 |
| 20260503080247 | 39 | 222 | 5.2 | 6.1 | 0.00 | 0.00 | 0.00 | 68 | 1019.3 |
| 20260503072724 | 38 | 216 | 3.5 | 3.5 | 0.00 | 0.00 | 0.00 | 70 | 1018.9 |
| 20260503072220 | 39 | 215 | 3.5 | 5.2 | 0.00 | 0.00 | 0.00 | 69 | 1019.0 |
| 20260503071717 | 39 | 209 | 3.5 | 5.2 | 0.00 | 0.00 | 0.00 | 69 | 1019.2 |
| 20260503071214 | 38 | 207 | 4.3 | 5.2 | 0.00 | 0.00 | 0.00 | 71 | 1019.2 |
| 20260503070710 | 38 | 213 | 4.3 | 5.2 | 0.00 | 0.00 | 0.00 | 70 | 1019.1 |
| 20260503070209 | 38 | 204 | 3.5 | 5.2 | 0.00 | 0.00 | 0.00 | 73 | 1019.3 |
| 20260503060133 | 38 | 194 | 2.6 | 2.6 | 0.00 | 0.00 | 0.00 | 71 | 1019.7 |
| 20260503055125 | 38 | 197 | 2.6 | 3.5 | 0.00 | 0.00 | 0.00 | 70 | 1019.7 |
| 20260503054620 | 38 | 196 | 2.6 | 2.6 | 0.00 | 0.00 | 0.00 | 71 | 1019.7 |
| 20260503054117 | 38 | 196 | 2.6 | 2.6 | 0.00 | 0.00 | 0.00 | 71 | 1019.9 |
| 20260503053615 | 37 | 196 | 2.6 | 2.6 | 0.00 | 0.00 | 0.00 | 72 | 1020.0 |
| 20260503053114 | 37 | 195 | 2.6 | 2.6 | 0.00 | 0.00 | 0.00 | 71 | 1020.0 |
| 20260503052609 | 37 | 195 | 2.6 | 2.6 | 0.00 | 0.00 | 0.00 | 71 | 1019.9 |
| 20260503052106 | 37 | 198 | 1.7 | 2.6 | 0.00 | 0.00 | 0.00 | 72 | 1020.1 |
| 20260503051601 | 37 | 204 | 1.7 | 2.6 | 0.00 | 0.00 | 0.00 | 73 | 1019.9 |
| 20260503051059 | 37 | 205 | 1.7 | 2.6 | 0.00 | 0.00 | 0.00 | 73 | 1019.9 |
| 20260503050555 | 37 | 203 | 2.6 | 2.6 | 0.00 | 0.00 | 0.00 | 76 | 1020.1 |
| 20260503050053 | 37 | 208 | 2.6 | 2.6 | 0.00 | 0.00 | 0.00 | 78 | 1020.1 |
| 20260503045549 | 36 | 206 | 2.6 | 2.6 | 0.00 | 0.00 | 0.00 | 80 | 1019.9 |
| 20260503045047 | 37 | 231 | 0.0 | 0.0 | 0.00 | 0.00 | 0.00 | 79 | 1020.1 |
| 20260503044543 | 37 | 227 | 0.0 | 0.9 | 0.00 | 0.00 | 0.00 | 76 | 1019.9 |
| 20260503044041 | 39 | 227 | 0.0 | 0.9 | 0.00 | 0.00 | 0.00 | 72 | 1019.9 |
| 20260503043537 | 39 | 209 | 1.7 | 1.7 | 0.00 | 0.00 | 0.00 | 69 | 1020.1 |
| 20260503043034 | 38 | 209 | 1.7 | 1.7 | 0.00 | 0.00 | 0.00 | 72 | 1020.0 |
| 20260503042531 | 38 | 209 | 2.6 | 2.6 | 0.00 | 0.00 | 0.00 | 76 | 1020.1 |
| 20260503042027 | 38 | 209 | 1.7 | 2.6 | 0.00 | 0.00 | 0.00 | 72 | 1020.0 |
| 20260503041524 | 38 | 209 | 1.7 | 1.7 | 0.00 | 0.00 | 0.00 | 71 | 1019.7 |
| 20260503041022 | 39 | 210 | 1.7 | 1.7 | 0.00 | 0.00 | 0.00 | 72 | 1020.0 |
| 20260503040519 | 39 | 209 | 1.7 | 1.7 | 0.00 | 0.00 | 0.00 | 68 | 1020.0 |
| 20260503040016 | 39 | 209 | 1.7 | 1.7 | 0.00 | 0.00 | 0.00 | 70 | 1019.8 |
| 20260503035513 | 38 | 209 | 1.7 | 1.7 | 0.00 | 0.00 | 0.00 | 70 | 1019.9 |
| 20260503035010 | 39 | 209 | 0.0 | 0.0 | 0.00 | 0.00 | 0.00 | 68 | 1020.1 |
| 20260503034508 | 40 | 209 | 0.9 | 1.7 | 0.00 | 0.00 | 0.00 | 67 | 1019.9 |
| 20260503034004 | 40 | 209 | 1.7 | 2.6 | 0.00 | 0.00 | 0.00 | 67 | 1020.0 |
| 20260503033501 | 40 | 207 | 2.6 | 2.6 | 0.00 | 0.00 | 0.00 | 67 | 1020.0 |
| 20260503033000 | 40 | 207 | 2.6 | 2.6 | 0.00 | 0.00 | 0.00 | 67 | 1019.7 |
| 20260503032458 | 40 | 207 | 1.7 | 1.7 | 0.00 | 0.00 | 0.00 | 67 | 1019.9 |
| 20260503031955 | 40 | 206 | 1.7 | 1.7 | 0.00 | 0.00 | 0.00 | 67 | 1020.1 |
| 20260503031453 | 41 | 206 | 1.7 | 1.7 | 0.00 | 0.00 | 0.00 | 65 | 1019.7 |
| 20260503030949 | 40 | 207 | 2.6 | 2.6 | 0.00 | 0.00 | 0.00 | 66 | 1020.0 |
| 20260503030446 | 40 | 207 | 2.6 | 3.5 | 0.00 | 0.00 | 0.00 | 69 | 1019.9 |
| 20260503025943 | 41 | 206 | 1.7 | 1.7 | 0.00 | 0.00 | 0.00 | 66 | 1020.1 |
| 20260503025440 | 40 | 207 | 1.7 | 2.6 | 0.00 | 0.00 | 0.00 | 68 | 1019.8 |
| 20260503024937 | 40 | 207 | 1.7 | 1.7 | 0.00 | 0.00 | 0.00 | 68 | 1019.9 |
| 20260503024433 | 41 | 206 | 0.9 | 0.9 | 0.00 | 0.00 | 0.00 | 66 | 1019.8 |
| 20260503023931 | 41 | 206 | 0.0 | 0.0 | 0.00 | 0.00 | 0.00 | 64 | 1019.9 |
| 20260503023428 | 41 | 206 | 0.0 | 0.0 | 0.00 | 0.00 | 0.00 | 65 | 1019.8 |
| 20260503022925 | 41 | 206 | 0.0 | 0.9 | 0.00 | 0.00 | 0.00 | 67 | 1019.7 |
| 20260503022420 | 41 | 206 | 1.7 | 1.7 | 0.00 | 0.00 | 0.00 | 66 | 1019.7 |
| 20260503021916 | 42 | 206 | 1.7 | 2.6 | 0.00 | 0.00 | 0.00 | 64 | 1019.8 |
| 20260503021412 | 42 | 261 | 0.9 | 0.9 | 0.00 | 0.00 | 0.00 | 57 | 1020.0 |
| 20260503020909 | 42 | 261 | 0.9 | 0.9 | 0.00 | 0.00 | 0.00 | 55 | 1019.7 |
| 20260503020407 | 42 | 261 | 0.9 | 0.9 | 0.00 | 0.00 | 0.00 | 58 | 1019.7 |
| 20260503015903 | 43 | 262 | 0.0 | 0.0 | 0.00 | 0.00 | 0.00 | 54 | 1019.7 |
| 20260503015400 | 43 | 262 | 0.0 | 0.0 | 0.00 | 0.00 | 0.00 | 54 | 1019.6 |
| 20260503014856 | 43 | 262 | 0.0 | 0.0 | 0.00 | 0.00 | 0.00 | 53 | 1019.4 |
| 20260503014354 | 43 | 262 | 0.0 | 0.9 | 0.00 | 0.00 | 0.00 | 54 | 1019.7 |
| 20260503013852 | 44 | 262 | 0.9 | 0.9 | 0.00 | 0.00 | 0.00 | 52 | 1019.6 |
| 20260503013348 | 44 | 262 | 0.9 | 1.7 | 0.00 | 0.00 | 0.00 | 53 | 1019.4 |
| 20260503012845 | 44 | 262 | 1.7 | 1.7 | 0.00 | 0.00 | 0.00 | 54 | 1019.6 |
| 20260503012343 | 44 | 274 | 0.9 | 1.7 | 0.00 | 0.00 | 0.00 | 53 | 1019.2 |
| 20260503011840 | 46 | 303 | 0.0 | 0.0 | 0.00 | 0.00 | 0.00 | 52 | 1019.4 |
| 20260503011337 | 46 | 303 | 0.9 | 0.9 | 0.00 | 0.00 | 0.00 | 46 | 1019.3 |
| 20260503010833 | 45 | 303 | 1.7 | 1.7 | 0.00 | 0.00 | 0.00 | 47 | 1019.3 |
| 20260503010330 | 45 | 305 | 1.7 | 1.7 | 0.00 | 0.00 | 0.00 | 49 | 1019.1 |
| 20260503005827 | 45 | 315 | 1.7 | 1.7 | 0.00 | 0.00 | 0.00 | 52 | 1019.3 |
| 20260503005324 | 45 | 318 | 1.7 | 1.7 | 0.00 | 0.00 | 0.00 | 50 | 1019.3 |
| 20260503004820 | 46 | 317 | 1.7 | 1.7 | 0.00 | 0.00 | 0.00 | 49 | 1019.4 |
| 20260503004318 | 46 | 335 | 2.6 | 3.5 | 0.00 | 0.00 | 0.00 | 46 | 1019.2 |
| 20260503003816 | 46 | 331 | 4.3 | 5.2 | 0.00 | 0.00 | 0.00 | 46 | 1019.1 |
| 20260503003312 | 47 | 333 | 3.5 | 5.2 | 0.00 | 0.00 | 0.00 | 47 | 1019.2 |
| 20260503002809 | 48 | 322 | 7.8 | 9.6 | 0.00 | 0.00 | 0.00 | 44 | 1019.2 |
| 20260503002306 | 48 | 332 | 7.0 | 7.0 | 0.00 | 0.00 | 0.00 | 45 | 1019.1 |
| 20260503001803 | 48 | 335 | 6.1 | 6.1 | 0.00 | 0.00 | 0.00 | 44 | 1019.1 |
| 20260503001259 | 49 | 346 | 3.5 | 3.5 | 0.00 | 0.00 | 0.00 | 44 | 1019.0 |
| 20260503000757 | 49 | 338 | 6.1 | 8.7 | 0.00 | 0.00 | 0.00 | 44 | 1018.9 |
| 20260503000254 | 49 | 336 | 7.8 | 11.3 | 0.00 | 0.00 | 0.00 | 42 | 1018.9 |
| 20260502235751 | 49 | 326 | 9.6 | 9.6 | 0.00 | 0.00 | 0.00 | 40 | 1018.8 |
| 20260502235249 | 49 | 336 | 10.4 | 11.3 | 0.00 | 0.00 | 0.00 | 39 | 1018.7 |
| 20260502234744 | 50 | 336 | 10.4 | 13.0 | 0.00 | 0.00 | 0.00 | 41 | 1018.7 |
| 20260502234242 | 50 | 320 | 6.1 | 7.8 | 0.00 | 0.00 | 0.00 | 40 | 1018.7 |
| 20260502233738 | 50 | 344 | 5.2 | 7.8 | 0.00 | 0.00 | 0.00 | 40 | 1018.7 |
| 20260502233235 | 49 | 327 | 7.8 | 7.8 | 0.00 | 0.00 | 0.00 | 43 | 1018.9 |
| 20260502232730 | 48 | 319 | 4.3 | 6.1 | 0.00 | 0.00 | 0.00 | 46 | 1018.8 |
| 20260502232228 | 49 | 332 | 5.2 | 9.6 | 0.00 | 0.00 | 0.00 | 44 | 1018.8 |
| 20260502231724 | 49 | 342 | 7.0 | 8.7 | 0.00 | 0.00 | 0.00 | 40 | 1018.8 |
| 20260502231222 | 50 | 325 | 7.8 | 11.3 | 0.00 | 0.00 | 0.00 | 43 | 1018.7 |
| 20260502230721 | 50 | 337 | 9.6 | 9.6 | 0.00 | 0.00 | 0.00 | 40 | 1018.5 |
| 20260502230219 | 50 | 337 | 8.7 | 12.2 | 0.00 | 0.00 | 0.00 | 39 | 1018.6 |
| 20260502225714 | 50 | 356 | 3.5 | 5.2 | 0.00 | 0.00 | 0.00 | 42 | 1018.5 |
| 20260502225212 | 49 | 311 | 1.7 | 2.6 | 0.00 | 0.00 | 0.00 | 42 | 1018.6 |
| 20260502224708 | 49 | 3 | 3.5 | 5.2 | 0.00 | 0.00 | 0.00 | 41 | 1018.7 |
| 20260502224205 | 49 | 339 | 3.5 | 5.2 | 0.00 | 0.00 | 0.00 | 43 | 1018.9 |
| 20260502223702 | 49 | 343 | 5.2 | 7.8 | 0.00 | 0.00 | 0.00 | 43 | 1018.7 |
| 20260502223200 | 49 | 4 | 5.2 | 7.8 | 0.00 | 0.00 | 0.00 | 43 | 1018.8 |
| 20260502222658 | 49 | 3 | 9.6 | 11.3 | 0.00 | 0.00 | 0.00 | 43 | 1018.8 |
| 20260502222154 | 49 | 342 | 8.7 | 11.3 | 0.00 | 0.00 | 0.00 | 42 | 1018.8 |
| 20260502221649 | 50 | 20 | 5.2 | 7.0 | 0.00 | 0.00 | 0.00 | 44 | 1018.8 |
| 20260502221147 | 51 | 14 | 2.6 | 5.2 | 0.00 | 0.00 | 0.00 | 42 | 1019.0 |
| 20260502220643 | 51 | 9 | 6.1 | 8.7 | 0.00 | 0.00 | 0.00 | 40 | 1018.9 |
| 20260502220139 | 52 | 27 | 5.2 | 8.7 | 0.00 | 0.00 | 0.00 | 40 | 1018.6 |
| 20260502215637 | 51 | 75 | 0.9 | 5.2 | 0.00 | 0.00 | 0.00 | 39 | 1018.9 |
| 20260502215133 | 49 | 49 | 3.5 | 6.1 | 0.00 | 0.00 | 0.00 | 42 | 1018.8 |
| 20260502214631 | 49 | 17 | 7.0 | 9.6 | 0.00 | 0.00 | 0.00 | 43 | 1019.0 |
| 20260502214128 | 49 | 33 | 5.2 | 7.0 | 0.00 | 0.00 | 0.00 | 46 | 1019.0 |
| 20260502213625 | 49 | 87 | 5.2 | 7.0 | 0.00 | 0.00 | 0.00 | 43 | 1018.7 |
| 20260502213122 | 49 | 59 | 7.0 | 8.7 | 0.00 | 0.00 | 0.00 | 44 | 1018.7 |
| 20260502212621 | 49 | 357 | 7.0 | 8.7 | 0.00 | 0.00 | 0.00 | 41 | 1019.0 |
| 20260502212119 | 49 | 27 | 7.0 | 11.3 | 0.00 | 0.00 | 0.00 | 41 | 1019.0 |
| 20260502211614 | 49 | 8 | 9.6 | 9.6 | 0.00 | 0.00 | 0.00 | 42 | 1019.0 |
| 20260502211111 | 49 | 345 | 7.8 | 12.2 | 0.00 | 0.00 | 0.00 | 41 | 1018.9 |
| 20260502210609 | 50 | 0 | 12.2 | 14.8 | 0.00 | 0.00 | 0.00 | 42 | 1018.9 |
| 20260502210106 | 50 | 315 | 8.7 | 13.9 | 0.00 | 0.00 | 0.00 | 44 | 1018.9 |
| 20260502205602 | 50 | 334 | 9.6 | 14.8 | 0.00 | 0.00 | 0.00 | 43 | 1018.9 |
| 20260502205100 | 48 | 353 | 7.8 | 12.2 | 0.00 | 0.00 | 0.00 | 42 | 1019.1 |
| 20260502204556 | 48 | 355 | 7.8 | 9.6 | 0.00 | 0.00 | 0.00 | 44 | 1019.0 |
| 20260502204054 | 48 | 337 | 7.0 | 12.2 | 0.00 | 0.00 | 0.00 | 43 | 1019.0 |
| 20260502203550 | 48 | 339 | 9.6 | 13.0 | 0.00 | 0.00 | 0.00 | 44 | 1018.9 |
| 20260502203048 | 48 | 353 | 8.7 | 13.0 | 0.00 | 0.00 | 0.00 | 44 | 1019.1 |
| 20260502202543 | 48 | 342 | 11.3 | 13.0 | 0.00 | 0.00 | 0.00 | 45 | 1019.3 |
| 20260502202042 | 48 | 344 | 6.1 | 13.0 | 0.00 | 0.00 | 0.00 | 44 | 1019.1 |
| 20260502201537 | 48 | 22 | 5.2 | 7.0 | 0.00 | 0.00 | 0.00 | 44 | 1019.2 |
| 20260502201034 | 49 | 34 | 7.8 | 13.9 | 0.00 | 0.00 | 0.00 | 44 | 1019.2 |
| 20260502200530 | 48 | 358 | 9.6 | 12.2 | 0.00 | 0.00 | 0.00 | 44 | 1019.6 |
| 20260502200028 | 49 | 340 | 12.2 | 13.0 | 0.00 | 0.00 | 0.00 | 45 | 1019.4 |
| 20260502195526 | 48 | 3 | 11.3 | 13.9 | 0.00 | 0.00 | 0.00 | 46 | 1019.7 |
| 20260502195021 | 48 | 353 | 7.0 | 7.8 | 0.00 | 0.00 | 0.00 | 43 | 1019.6 |
| 20260502194518 | 47 | 310 | 7.0 | 8.7 | 0.00 | 0.00 | 0.00 | 47 | 1019.8 |
| 20260502194014 | 47 | 331 | 11.3 | 13.0 | 0.00 | 0.00 | 0.00 | 46 | 1019.7 |
| 20260502193512 | 48 | 356 | 10.4 | 12.2 | 0.00 | 0.00 | 0.00 | 46 | 1019.6 |
| 20260502193009 | 48 | 352 | 7.8 | 13.0 | 0.00 | 0.00 | 0.00 | 44 | 1019.7 |
| 20260502192504 | 48 | 328 | 11.3 | 13.0 | 0.00 | 0.00 | 0.00 | 45 | 1019.7 |
| 20260502192002 | 48 | 16 | 7.0 | 11.3 | 0.00 | 0.00 | 0.00 | 48 | 1019.8 |
| 20260502191459 | 47 | 342 | 12.2 | 13.0 | 0.00 | 0.00 | 0.00 | 46 | 1019.9 |
| 20260502190956 | 48 | 340 | 9.6 | 12.2 | 0.00 | 0.00 | 0.00 | 45 | 1019.9 |
| 20260502190453 | 49 | 357 | 4.3 | 8.7 | 0.00 | 0.00 | 0.00 | 45 | 1019.8 |